Regional Weather Roundup
Issued by NWS

Home | Current Version | Previous Version | Text Only | Print | Product List | Glossary Off
Versions: 1 2 3 4 5 6 7 8 9 10 11 12 13 14 15 16 17 18 19 20 21 22 23 24 25 26 27 28 29 30 31 32 33 34 35 36 37 38 39 40 41 42 43 44 45 46 47 48 49 50

000
ASUS43 KTOP 302108
RWRKS

WEATHER ROUNDUP FOR KANSAS
NATIONAL WEATHER SERVICE GOODLAND KS
400 PM CDT SAT MAY 30 2015

NOTE:  "FAIR" INDICATES FEW OR NO CLOUDS BELOW 12,000 FEET WITH NO
SIGNIFICANT WEATHER AND/OR OBSTRUCTIONS TO VISIBILITY.

KSZ001>006-013>018-027>032-041>047-302200-
NORTHWEST KANSAS

CITY           SKY/WX    TMP DP  RH WIND       PRES   REMARKS
GOODLAND       SUNNY     64  46  52 MISG      30.25F
HAYS           SUNNY     66  43  42 N12       30.22S
HILL CITY      SUNNY     67  38  34 VRB7      30.23F
RUSSELL        SUNNY     67  49  52 N14       30.19F
$$

KSZ061>065-074>080-084>089-302200-
SOUTHWEST KANSAS

CITY           SKY/WX    TMP DP  RH WIND       PRES   REMARKS
DODGE CITY     SUNNY     67  43  41 N14G22    30.22F
ELKHART          N/A     67  49  52 NW3         N/A
GARDEN CITY    MOSUNNY   65  48  54 N10       30.22F
GREAT BEND     SUNNY     66  48  52 N13       30.20S
LIBERAL        MOSUNNY   68  48  49 NE7       30.24S
PRATT          SUNNY     68  45  42 N16       30.19F
$$

KSZ066>073-081>083-090>101-302200-
SOUTHEAST KANSAS

CITY           SKY/WX    TMP DP  RH WIND       PRES   REMARKS
CHANUTE        CLOUDY    62  55  77 N12       30.12S
COFFEYVILLE    CLOUDY    66  57  72 NW13      30.10F
HUTCHINSON     MOSUNNY   69  51  52 N12       30.16F
MEDICINE LODGE   N/A     72  50  45 N14G20    30.15F
NEWTON         CLOUDY    61  48  63 N14       30.19S
PARSONS        CLOUDY    65  58  78 NW14      30.12F
WICHITA INTL   CLOUDY    66  52  60 N16G22    30.15F
WICHITA JABRA  CLOUDY    63  52  67 N13       30.16F
WICHITA MCCONL MOSUNNY   64  53  68 N12       30.16F
WINFIELD       CLOUDY    64  53  67 N13       30.16F
$$

KSZ007>012-019>026-033>040-048>060-102>105-302200-
NORTHEAST KANSAS

CITY           SKY/WX    TMP DP  RH WIND       PRES   REMARKS
CONCORDIA      PTSUNNY   65  52  62 N12       30.19S
EMPORIA        CLOUDY    61  53  75 NW14      30.14F
LAWRENCE       CLOUDY    61  54  77 N15       30.13S
MANHATTAN      CLOUDY    61  53  75 N8        30.17F
MARYSVILLE     CLOUDY    63  52  67 N12G17    30.17S
OLATHE IND     CLOUDY    61  55  81 NW14      30.12F
OLATHE EXE     CLOUDY    61  55  81 N15G21    30.10F
SALINA         CLOUDY    65  52  62 N13       30.18F
TOPEKA BILLARD CLOUDY    62  54  74 NW10      30.14F
TOPEKA FORBES  CLOUDY    61  53  75 N13       30.13F
$$


USA.gov is the U.S. government's official web portal to all federal, state and local government web resources and services.